KAZEOSAT 2

Satellite information

Favourite Embed

Satellite Type and Status

PAYLOADIN ORBIT

Key statistics

Satellite KAZEOSAT 2 at a glance.

Uptime

4099

Days in orbit

Revolutions

≈ 14.8

Per day

Orbit

SSO

Sun Synchronous Orbit

Inclination

97.6

Latest

Satellite identification and parameters

Extended collection of information and parameters for KAZEOSAT 2.

Object identification

Identified? True

Debris? False

Object name: KAZEOSAT 2

International designator: 2014-033A

Object number (NORAD): 40010

Object ID (CCSDS): 40010

Country: KAZAKHSTAN (KAZ)

Current information (Y/N): Y

RCS size: MEDIUM

Orbital parameters

Period: 96.973 minutes

Inclination: 97.5644 deg

SMA: 6991.903 km

Apoapsis: 620.068 km

Periapsis: 607.468 km

RAAN: 100.1557 deg

Eccentricy: 0.00090104

Argument of periapsis: 161.3509 deg

Mean anomaly: 198.8038 deg

Mean motion: 14.84942695 rev/day

Mean motion (dot): 0.00000871 rev/day2

B* drag term: 0.00010815463 1/REarth

Two-line elements (TLE)

Creation date: Sept. 8, 2025, 3:16 a.m.

Reference frame: TEME

Reference center: EARTH

Epoch: Sept. 7, 2025, 10:42 p.m. UTC

TLE line 0: 0 KAZEOSAT 2

TLE line 1: 1 40010U 14033A 25250.94645976 .00000871 00000-0 10815-3 0 9994

TLE line 2: 2 40010 97.5644 100.1557 0009010 161.3509 198.8038 14.84942695607064

Live tracking on map

Real-time ground track for satellite KAZEOSAT 2.

In-orbit conjunctions

There are no conjunctions computed for KAZEOSAT 2, at the moment. Check back to stay up to date, as we update our databases every day.

Go to all conjunctions

Associated space launch

KAZEOSAT 2 was lifted into orbit during the mission ‘Dnepr 1 | Multipayload, 37 satellites.’, on board a Dnepr space rocket.

The launch took place on June 19, 2014, 7:11 p.m. from 370/13.

For more information about the launch, click the button.

Launch to space Dnepr 1 | Multipayload, 37 satellites.
Dnepr 1 | Multipayload, 37 satellites.

Agency: N/A

Status: Launch Successful

Launch date: June 19, 2014, 7:11 p.m. UTC

Rocket: Dnepr

Launch pad: 370/13

Location: Dombarovskiy, Russian Federation

...

Latest news about this satellite

There are no fresh news available about this satellite. Check back as we update our databases every day.


Newsletter sign-up

Weekly statistics, charts and insights to help you stay on top of the space industry.